Location: Santa Fe
(35.6870°N, 105.9370°W)
Time: 16:26:31
(UTC-06:00)

Amateur Radio Satellites - All Passes

Search period start: 22 October 2014 15:56
Search period end: 23 October 2014 15:56
Location: Santa Fe, 35.6870°N, 105.9370°W

Satellite Date Start Highest point End Downlink Frequencies (MHz)
Time Altitude Azimuth
KITSAT 1 22 Oct 15:56:51 15:59:19 12° 328° (NNW) 16:01:48 435.175 FM
UOSAT-12 22 Oct 16:09:12 16:13:30 37° 306° (NW) 16:17:53 437.025 FM, 437.400 FM
JAS-2 22 Oct 16:12:09 16:13:46 11° 56° (NE) 16:15:25 435.800 - 435.900 CW/SSB, 435.910 FM
Saudisat 1A 22 Oct 16:21:20 16:23:40 14° 46° (NE) 16:25:59 436.775 MHz
Uosat F 22 Oct 16:30:19 16:35:15 63° 74° (ENE) 16:40:14 435.120 FM
Gurwin Techsat 1B 22 Oct 16:40:26 16:41:59 11° 269° (W) 16:43:32 435.225 FM
TMSAT-1 22 Oct 16:53:05 16:54:51 12° 269° (W) 16:56:37 436.925 FM
AO-7 22 Oct 17:17:33 17:25:24 47° 259° (WSW) 17:33:19 29.400 - 29.500 MHz
Hamsat 22 Oct 17:43:55 17:47:53 41° 74° (ENE) 17:51:50 145.90 MHz
JAS-2 22 Oct 17:51:51 17:57:31 82° 75° (ENE) 18:04:00 435.800 - 435.900 CW/SSB, 435.910 FM
Saudisat 1A 22 Oct 17:59:15 18:03:38 63° 243° (WSW) 18:07:59 436.775 MHz
OPAL 22 Oct 18:06:06 18:10:59 56° 103° (ESE) 18:15:49 ?
Uosat F 22 Oct 18:12:24 18:14:24 12° 268° (W) 18:16:25 435.120 FM
SO-67 22 Oct 19:04:56 19:08:09 39° 75° (ENE) 19:11:23 435.3500 MHz FM
AO-40 22 Oct 19:05:54 02:01:37 51° 177° (S) 03:55:58 Beacon 2401.320
ISS 22 Oct 19:15:48 19:17:12 12° 24° (NNE) 19:18:35 145.800 FM
Hamsat 22 Oct 19:21:55 19:23:59 13° 267° (W) 19:26:03 145.90 MHz
JAS-2 22 Oct 19:41:58 19:43:35 11° 274° (W) 19:45:15 435.800 - 435.900 CW/SSB, 435.910 FM
STRAND 1 22 Oct 19:46:29 19:51:37 66° 102° (ESE) 19:56:42 ?
OPAL 22 Oct 19:46:35 19:49:21 15° 298° (WNW) 19:52:06 ?
KITSAT 1 22 Oct 19:57:14 20:00:21 12° 33° (NNE) 20:03:27 435.175 FM
HO-68 22 Oct 20:35:53 20:42:36 46° 68° (ENE) 20:49:22 435.675 MHz FM
UKube-1 22 Oct 20:45:20 20:47:00 12° 65° (ENE) 20:48:41 145.840 MHz, 145.915 MHz
RS-15 22 Oct 20:50:26 20:56:20 16° 99° (E) 21:02:09 29.354 - 29.394 USB, Beacon 29.352 USB
ISS 22 Oct 20:51:03 20:54:23 74° 41° (NE) 20:57:42 145.800 FM
FUNcube-1 22 Oct 21:21:05 21:22:33 11° 65° (ENE) 21:24:01 145.950 - 145.970 MHz USB
Oscar 11 22 Oct 21:26:34 21:30:21 30° 71° (ENE) 21:34:09 145.825 FM, Beacon 2401.500 USB
SO-50 22 Oct 21:26:53 21:29:13 13° 45° (NE) 21:31:33 436.795 FM
STRAND 1 22 Oct 21:27:43 21:30:11 14° 297° (WNW) 21:32:40 ?
KITSAT 1 22 Oct 21:50:00 21:57:51 52° 57° (ENE) 22:05:39 435.175 FM
ZACube-1 22 Oct 22:08:49 22:13:06 39° 73° (ENE) 22:17:21 437.345 MHz
UKube-1 22 Oct 22:18:26 22:22:41 54° 259° (W) 22:26:58 145.840 MHz, 145.915 MHz
HO-68 22 Oct 22:24:20 22:30:24 30° 263° (W) 22:36:32 435.675 MHz FM
FUNcube-1 22 Oct 22:53:48 22:58:22 64° 259° (W) 23:02:54 145.950 - 145.970 MHz USB
RS-15 22 Oct 22:55:53 23:06:57 84° 117° (ESE) 23:17:54 29.354 - 29.394 USB, Beacon 29.352 USB
Oscar 11 22 Oct 23:03:24 23:06:32 19° 265° (W) 23:09:40 145.825 FM, Beacon 2401.500 USB
UOSAT-12 22 Oct 23:03:49 23:05:01 11° 42° (NE) 23:06:13 437.025 FM, 437.400 FM
SO-50 22 Oct 23:05:29 23:10:22 82° 242° (WSW) 23:15:15 436.795 FM
KITSAT 1 22 Oct 23:46:00 23:52:50 32° 254° (WSW) 23:59:40 435.175 FM
ZACube-1 22 Oct 23:46:35 23:49:35 17° 266° (W) 23:52:34 437.345 MHz
MaSat-1 23 Oct 00:03:10 00:07:19 47° 110° (ESE) 00:11:08 437.345 MHz
UOSAT-12 23 Oct 00:41:10 00:45:54 84° 60° (ENE) 00:50:31 437.025 FM, 437.400 FM
JAS-1B 23 Oct 01:11:19 01:14:26 13° 93° (E) 01:17:44 435.800 - 435.900 CW/SSB
RS-15 23 Oct 01:11:40 01:20:38 28° 321° (NW) 01:29:40 29.354 - 29.394 USB, Beacon 29.352 USB
MaSat-1 23 Oct 01:41:05 01:43:08 13° 302° (WNW) 01:45:06 437.345 MHz
Oscar 10/S400 23 Oct 01:47:24 02:51:20 21° 246° (WSW) 05:17:29 145.825 - 145.975 CW/USB, Beacon 145.810 USB
Oscar 19 23 Oct 02:01:16 02:05:53 34° 98° (E) 02:10:29 437.125 CW, 437.150 USB
AO-27 23 Oct 02:14:44 02:18:13 18° 94° (E) 02:21:40 436.795 MHz FM
Oscar 16 23 Oct 02:46:18 02:51:26 82° 284° (WNW) 02:56:32 437.025 USB, Beacon 2401.1428
AO-Echo 23 Oct 02:57:42 03:03:00 67° 101° (ESE) 03:08:16 ?
JAS-1B 23 Oct 02:58:36 03:05:19 90° 285° (WNW) 03:13:26 435.800 - 435.900 CW/SSB
Uribyol 2 23 Oct 03:02:12 03:07:20 57° 101° (E) 03:12:25 436.500 FM
PCSat 23 Oct 03:05:22 03:07:39 13° 103° (ESE) 03:09:56 145.825 MHz
ITAMSAT 1 23 Oct 03:07:40 03:12:51 61° 101° (ESE) 03:17:59 435.822 SSB
Gurwin Techsat 1B 23 Oct 03:15:47 03:20:41 37° 98° (E) 03:25:33 435.225 FM
TMSAT-1 23 Oct 03:28:23 03:33:14 36° 98° (E) 03:38:03 436.925 FM
RS-15 23 Oct 03:34:40 03:38:38 12° 356° (N) 03:42:38 29.354 - 29.394 USB, Beacon 29.352 USB
AO-7 23 Oct 03:34:49 03:36:10 10° 89° (E) 03:37:31 29.400 - 29.500 MHz
Oscar 19 23 Oct 03:40:56 03:45:01 25° 292° (WNW) 03:49:06 437.125 CW, 437.150 USB
AO-27 23 Oct 03:52:55 03:57:55 47° 288° (WNW) 04:02:54 436.795 MHz FM
Sapphire 23 Oct 04:22:15 04:27:35 67° 113° (ESE) 04:32:59 437.095 MHz 1200 baud AX-25 AFSK
AO-Echo 23 Oct 04:38:23 04:41:08 14° 296° (WNW) 04:43:54 ?
Uosat F 23 Oct 04:41:38 04:45:43 24° 96° (E) 04:49:46 435.120 FM
Uribyol 2 23 Oct 04:43:15 04:46:17 16° 296° (WNW) 04:49:18 436.500 FM
PCSat 23 Oct 04:45:00 04:50:22 71° 298° (WNW) 04:55:48 145.825 MHz
ITAMSAT 1 23 Oct 04:48:55 04:51:46 15° 297° (WNW) 04:54:38 435.822 SSB
JAS-1B 23 Oct 04:52:04 04:55:21 14° 298° (WNW) 04:58:52 435.800 - 435.900 CW/SSB
Gurwin Techsat 1B 23 Oct 04:56:12 05:00:24 24° 293° (WNW) 05:04:35 435.225 FM
JAS-2 23 Oct 05:05:21 05:10:07 17° 89° (E) 05:14:50 435.800 - 435.900 CW/SSB, 435.910 FM
TMSAT-1 23 Oct 05:08:41 05:12:56 25° 293° (WNW) 05:17:09 436.925 FM
OPAL 23 Oct 05:17:57 05:23:07 75° 73° (ENE) 05:28:14 ?
AO-7 23 Oct 05:21:46 05:30:06 73° 105° (ESE) 05:38:24 29.400 - 29.500 MHz
RS-15 23 Oct 05:49:10 05:57:22 23° 33° (NNE) 06:05:44 29.354 - 29.394 USB, Beacon 29.352 USB
Sapphire 23 Oct 06:08:04 06:11:30 17° 311° (NW) 06:14:58 437.095 MHz 1200 baud AX-25 AFSK
Uosat F 23 Oct 06:20:00 06:24:29 33° 290° (WNW) 06:28:57 435.120 FM
PCSat 23 Oct 06:34:03 06:34:46 10° 316° (NW) 06:35:28 145.825 MHz
JAS-2 23 Oct 06:47:56 06:55:45 85° 285° (WNW) 07:03:33 435.800 - 435.900 CW/SSB, 435.910 FM
STRAND 1 23 Oct 06:59:26 07:04:30 70° 74° (ENE) 07:09:38 ?
OPAL 23 Oct 07:01:14 07:02:25 11° 267° (W) 07:03:35 ?
Hamsat 23 Oct 07:07:54 07:12:03 61° 284° (WNW) 07:16:12 145.90 MHz
AO-7 23 Oct 07:15:55 07:22:04 24° 303° (WNW) 07:28:14 29.400 - 29.500 MHz
RS-15 23 Oct 08:00:43 08:11:58 75° 59° (ENE) 08:23:42 29.354 - 29.394 USB, Beacon 29.352 USB
Saudisat 1A 23 Oct 08:02:36 08:06:56 67° 117° (ESE) 08:11:18 436.775 MHz
SO-67 23 Oct 08:03:33 08:07:00 75° 101° (ESE) 08:10:25 435.3500 MHz FM
PANSAT 23 Oct 08:10:38 08:13:09 17° 164° (SSE) 08:15:39 not established
JAS-2 23 Oct 08:35:11 08:39:40 17° 301° (WNW) 08:44:12 435.800 - 435.900 CW/SSB, 435.910 FM
STRAND 1 23 Oct 08:42:39 08:44:08 11° 269° (W) 08:45:38 ?
Saudisat 1A 23 Oct 09:44:50 09:46:56 13° 314° (NW) 09:49:03 436.775 MHz
PANSAT 23 Oct 09:49:32 09:52:48 27° 177° (S) 09:56:04 not established
MaSat-1 23 Oct 09:52:47 09:55:06 29° 62° (ENE) 09:57:15 437.345 MHz
HO-68 23 Oct 09:53:48 10:00:57 63° 103° (ESE) 10:08:02 435.675 MHz FM
UKube-1 23 Oct 10:09:44 10:13:37 30° 98° (E) 10:17:27 145.840 MHz, 145.915 MHz
RS-15 23 Oct 10:14:34 10:23:18 27° 257° (WSW) 10:32:21 29.354 - 29.394 USB, Beacon 29.352 USB
FUNcube-1 23 Oct 10:46:28 10:50:10 29° 97° (E) 10:53:48 145.950 - 145.970 MHz USB
Oscar 11 23 Oct 10:52:27 10:56:46 86° 282° (WNW) 11:01:04 145.825 FM, Beacon 2401.500 USB
PANSAT 23 Oct 11:29:26 11:32:30 23° 190° (S) 11:35:33 not established
ZACube-1 23 Oct 11:37:10 11:41:23 64° 284° (WNW) 11:45:30 437.345 MHz
HO-68 23 Oct 11:42:41 11:48:02 23° 299° (WNW) 11:53:22 435.675 MHz FM
UKube-1 23 Oct 11:46:22 11:49:34 20° 292° (WNW) 11:52:46 145.840 MHz, 145.915 MHz
Oscar 10/S400 23 Oct 11:56:05 12:18:56 30° 153° (SSE) 12:34:28 145.825 - 145.975 CW/USB, Beacon 145.810 USB
ISS 23 Oct 11:57:43 11:57:59 10° 126° (SE) 11:58:14 145.800 FM
KITSAT 1 23 Oct 12:14:39 12:22:24 53° 111° (ESE) 12:30:11 435.175 FM
FUNcube-1 23 Oct 12:23:18 12:26:20 19° 292° (WNW) 12:29:19 145.950 - 145.970 MHz USB
Oscar 16 23 Oct 12:24:58 12:26:45 12° 62° (ENE) 12:28:33 437.025 USB, Beacon 2401.1428
PANSAT 23 Oct 13:11:22 13:12:02 10° 201° (SSW) 13:12:43 not established
Sapphire 23 Oct 13:13:33 13:18:16 29° 55° (NE) 13:22:58 437.095 MHz 1200 baud AX-25 AFSK
Oscar 19 23 Oct 13:15:18 13:20:01 37° 71° (ENE) 13:24:43 437.125 CW, 437.150 USB
SO-50 23 Oct 13:17:35 13:21:59 65° 117° (ESE) 13:26:32 436.795 FM
AO-27 23 Oct 13:30:09 13:34:00 21° 66° (ENE) 13:37:52 436.795 MHz FM
ISS 23 Oct 13:30:57 13:34:15 64° 320° (NW) 13:37:33 145.800 FM
PCSat 23 Oct 13:35:56 13:41:12 49° 60° (ENE) 13:46:25 145.825 MHz
JAS-1B 23 Oct 13:42:22 13:48:22 57° 73° (ENE) 13:53:55 435.800 - 435.900 CW/SSB
Oscar 16 23 Oct 14:00:15 14:05:25 76° 257° (WSW) 14:10:36 437.025 USB, Beacon 2401.1428
AO-Echo 23 Oct 14:07:49 14:12:34 61° 74° (ENE) 14:17:30 ?
KITSAT 1 23 Oct 14:10:55 14:18:03 33° 310° (NW) 14:25:13 435.175 FM
Uribyol 2 23 Oct 14:17:05 14:22:13 65° 74° (ENE) 14:27:24 436.500 FM
ITAMSAT 1 23 Oct 14:22:42 14:27:52 69° 74° (ENE) 14:33:04 435.822 SSB
AO-7 23 Oct 14:30:00 14:34:04 15° 52° (NE) 14:38:08 29.400 - 29.500 MHz
Gurwin Techsat 1B 23 Oct 14:33:58 14:38:58 44° 72° (ENE) 14:44:00 435.225 FM
TMSAT-1 23 Oct 14:46:14 14:51:12 42° 71° (ENE) 14:56:10 436.925 FM
UOSAT-12 23 Oct 14:49:25 14:53:51 50° 115° (ESE) 14:58:23 437.025 FM, 437.400 FM
Oscar 19 23 Oct 14:55:25 14:59:24 22° 265° (W) 15:03:23 437.125 CW, 437.150 USB
Sapphire 23 Oct 14:56:49 15:01:40 34° 251° (WSW) 15:06:30 437.095 MHz 1200 baud AX-25 AFSK
SO-50 23 Oct 15:00:33 15:03:00 14° 315° (NW) 15:05:30 436.795 FM
AO-27 23 Oct 15:08:18 15:13:11 41° 261° (W) 15:18:07 436.795 MHz FM
ISS 23 Oct 15:10:26 15:11:29 11° 337° (NNW) 15:12:33 145.800 FM
PCSat 23 Oct 15:20:26 15:24:10 19° 255° (WSW) 15:27:54 145.825 MHz
JAS-1B 23 Oct 15:35:52 15:39:20 15° 266° (W) 15:42:40 435.800 - 435.900 CW/SSB
AO-Echo 23 Oct 15:49:55 15:51:45 12° 269° (W) 15:53:37 ?
